When you browse on this site, cookies collect data to enhance your experience and personalize the content and advertising you see.
Visit our Privacy Policy to learn more. By continuing to use the site, you agree to this use of cookies and data.
  • In Österreich
  • Länderverzeichnis
  • Für 7 Tage
  • Wassertemperatur
  • Satellitenkarten
  • Wetterkarte
  • News
  • Widgets
  • user-avatar
    Anmelden

    Stündliche Wetter Sidi Bu-l-Abbas

    Heute, 20 Juni, Donnerstag

    Zeit Temperatur Niederschläge Wind Luftdruck Luftfeuchtigkeit
    00:00 +22°C° 0 mm 1 m/S 719 mmHg 51%
    01:00 +22°C° 0 mm 1 m/S 718 mmHg 51%
    02:00 +22°C° 0 mm 1 m/S 718 mmHg 50%
    03:00 +21°C° 0 mm 2 m/S 718 mmHg 50%
    04:00 +22°C° 0 mm 1 m/S 718 mmHg 49%
    05:00 +22°C° 0 mm 1 m/S 719 mmHg 49%
    06:00 +22°C° 0 mm 1 m/S 719 mmHg 48%
    07:00 +24°C° 0 mm 1 m/S 719 mmHg 44%
    08:00 +25°C° 0 mm 2 m/S 719 mmHg 39%
    09:00 +26°C° 0 mm 2 m/S 719 mmHg 35%
    10:00 +28°C° 0 mm 3 m/S 719 mmHg 32%
    11:00 +29°C° 0 mm 4 m/S 719 mmHg 30%
    12:00 +32°C° 0 mm 5 m/S 719 mmHg 28%
    13:00 +30°C° 0 mm 6 m/S 719 mmHg 30%
    14:00 +29°C° 0 mm 6 m/S 718 mmHg 32%
    15:00 +29°C° 0 mm 7 m/S 717 mmHg 34%
    16:00 +28°C° 0 mm 7 m/S 717 mmHg 36%
    17:00 +27°C° 0 mm 6 m/S 718 mmHg 37%
    18:00 +26°C° 0 mm 5 m/S 718 mmHg 38%
    19:00 +25°C° 0 mm 4 m/S 718 mmHg 40%
    20:00 +24°C° 0 mm 3 m/S 718 mmHg 41%
    21:00 +23°C° 0 mm 1 m/S 719 mmHg 42%
    22:00 +21°C° 0 mm 2 m/S 719 mmHg 44%
    23:00 +21°C° 0 mm 2 m/S 719 mmHg 45%

    Morgen, 21 Juni, Freitag

    Zeit Temperatur Niederschläge Wind Luftdruck Luftfeuchtigkeit
    00:00 +20°C° 0 mm 2 m/S 719 mmHg 46%
    01:00 +20°C° 0 mm 2 m/S 719 mmHg 49%
    02:00 +20°C° 0 mm 1 m/S 719 mmHg 51%
    03:00 +20°C° 0 mm 1 m/S 718 mmHg 54%
    04:00 +20°C° 0 mm 1 m/S 718 mmHg 53%
    05:00 +21°C° 0 mm 1 m/S 719 mmHg 53%
    06:00 +21°C° 0 mm 1 m/S 719 mmHg 52%
    07:00 +23°C° 0 mm 2 m/S 719 mmHg 49%
    08:00 +24°C° 0 mm 2 m/S 719 mmHg 45%
    09:00 +26°C° 0 mm 3 m/S 720 mmHg 41%
    10:00 +27°C° 0 mm 4 m/S 720 mmHg 39%
    11:00 +28°C° 0 mm 5 m/S 719 mmHg 36%
    12:00 +29°C° 0 mm 6 m/S 719 mmHg 34%
    13:00 +29°C° 0 mm 6 m/S 719 mmHg 33%
    14:00 +30°C° 0 mm 6 m/S 719 mmHg 32%
    15:00 +30°C° 0 mm 7 m/S 718 mmHg 31%
    16:00 +29°C° 0 mm 6 m/S 718 mmHg 33%
    17:00 +28°C° 0 mm 5 m/S 718 mmHg 35%
    18:00 +26°C° 0 mm 5 m/S 718 mmHg 36%
    19:00 +25°C° 0 mm 3 m/S 719 mmHg 42%
    20:00 +24°C° 0 mm 2 m/S 719 mmHg 47%
    21:00 +20°C° 0 mm 0 m/S 720 mmHg 53%
    22:00 +20°C° 0 mm 0 m/S 720 mmHg 52%
    23:00 +19°C° 0 mm 0 m/S 719 mmHg 51%

    übermorgen, 22 Juni, Samstag

    Zeit Temperatur Niederschläge Wind Luftdruck Luftfeuchtigkeit
    00:00 +21°C° 0 mm 1 m/S 719 mmHg 50%
    01:00 +20°C° 0 mm 1 m/S 719 mmHg 52%
    02:00 +20°C° 0 mm 1 m/S 719 mmHg 54%
    03:00 +19°C° 0 mm 1 m/S 718 mmHg 57%
    04:00 +20°C° 0 mm 1 m/S 719 mmHg 57%
    05:00 +20°C° 0 mm 1 m/S 719 mmHg 58%
    06:00 +21°C° 0 mm 1 m/S 719 mmHg 59%
    07:00 +23°C° 0 mm 1 m/S 719 mmHg 51%
    08:00 +25°C° 0 mm 1 m/S 719 mmHg 44%
    09:00 +26°C° 0 mm 1 m/S 720 mmHg 36%
    10:00 +28°C° 0 mm 2 m/S 720 mmHg 33%
    11:00 +30°C° 0 mm 3 m/S 720 mmHg 29%
    12:00 +33°C° 0 mm 3 m/S 720 mmHg 25%
    13:00 +33°C° 0 mm 4 m/S 719 mmHg 27%
    14:00 +33°C° 0 mm 5 m/S 719 mmHg 29%
    15:00 +34°C° 0 mm 6 m/S 718 mmHg 31%
    16:00 +32°C° 0 mm 5 m/S 718 mmHg 34%
    17:00 +30°C° 0 mm 5 m/S 718 mmHg 37%
    18:00 +29°C° 0 mm 5 m/S 718 mmHg 40%
    19:00 +27°C° 0 mm 4 m/S 718 mmHg 47%
    20:00 +25°C° 0 mm 2 m/S 718 mmHg 54%
    21:00 +23°C° 0 mm 1 m/S 718 mmHg 62%
    22:00 +22°C° 0 mm 1 m/S 718 mmHg 64%
    23:00 +22°C° 0 mm 1 m/S 718 mmHg 66%

    23 Juni, Sonntag

    Zeit Temperatur Niederschläge Wind Luftdruck Luftfeuchtigkeit
    00:00 +21°C° 0 mm 1 m/S 718 mmHg 68%
    01:00 +20°C° 0 mm 1 m/S 718 mmHg 72%
    02:00 +19°C° 0 mm 2 m/S 717 mmHg 76%
    03:00 +18°C° 0 mm 2 m/S 717 mmHg 81%
    04:00 +18°C° 0 mm 2 m/S 717 mmHg 83%
    05:00 +19°C° 0 mm 1 m/S 717 mmHg 85%
    06:00 +19°C° 0 mm 1 m/S 717 mmHg 87%
    07:00 +21°C° 0 mm 1 m/S 717 mmHg 79%
    08:00 +22°C° 0 mm 1 m/S 717 mmHg 71%
    09:00 +24°C° 0 mm 2 m/S 717 mmHg 63%
    10:00 +26°C° 0 mm 3 m/S 717 mmHg 57%
    11:00 +27°C° 0 mm 4 m/S 717 mmHg 52%
    12:00 +29°C° 0 mm 5 m/S 717 mmHg 46%
    13:00 +29°C° 0 mm 5 m/S 717 mmHg 46%
    14:00 +30°C° 0 mm 5 m/S 717 mmHg 47%
    15:00 +30°C° 0 mm 6 m/S 716 mmHg 47%
    16:00 +29°C° 0 mm 5 m/S 716 mmHg 51%
    17:00 +28°C° 0 mm 4 m/S 716 mmHg 54%
    18:00 +27°C° 0 mm 4 m/S 716 mmHg 58%
    19:00 +25°C° 0 mm 3 m/S 717 mmHg 64%
    20:00 +24°C° 0 mm 3 m/S 717 mmHg 71%
    21:00 +21°C° 0 mm 2 m/S 718 mmHg 77%
    22:00 +21°C° 0 mm 2 m/S 718 mmHg 82%
    23:00 +20°C° 0 mm 2 m/S 718 mmHg 86%

    24 Juni, Montag

    Zeit Temperatur Niederschläge Wind Luftdruck Luftfeuchtigkeit
    00:00 +19°C° 0 mm 2 m/S 718 mmHg 91%
    01:00 +19°C° 0 mm 2 m/S 718 mmHg 90%
    02:00 +19°C° 0 mm 2 m/S 718 mmHg 89%
    03:00 +19°C° 0 mm 2 m/S 718 mmHg 88%
    04:00 +19°C° 0 mm 2 m/S 718 mmHg 86%
    05:00 +21°C° 0 mm 1 m/S 718 mmHg 84%
    06:00 +21°C° 0 mm 1 m/S 718 mmHg 82%
    07:00 +22°C° 0 mm 1 m/S 718 mmHg 73%
    08:00 +24°C° 0 mm 1 m/S 719 mmHg 65%
    09:00 +25°C° 0 mm 1 m/S 719 mmHg 56%
    10:00 +28°C° 0 mm 2 m/S 719 mmHg 49%
    11:00 +30°C° 0 mm 4 m/S 718 mmHg 42%
    12:00 +33°C° 0 mm 5 m/S 718 mmHg 35%
    13:00 +33°C° 0 mm 5 m/S 718 mmHg 38%
    14:00 +33°C° 0 mm 5 m/S 718 mmHg 41%
    15:00 +32°C° 0 mm 5 m/S 717 mmHg 43%
    16:00 +30°C° 0 mm 5 m/S 717 mmHg 48%
    17:00 +29°C° 0 mm 4 m/S 717 mmHg 52%
    18:00 +27°C° 0 mm 4 m/S 717 mmHg 56%
    19:00 +26°C° 0 mm 3 m/S 717 mmHg 62%
    20:00 +24°C° 0 mm 2 m/S 718 mmHg 69%
    21:00 +23°C° 0 mm 1 m/S 718 mmHg 76%
    22:00 +22°C° 0 mm 1 m/S 718 mmHg 78%
    23:00 +22°C° 0 mm 1 m/S 719 mmHg 81%

    25 Juni, Dienstag

    Zeit Temperatur Niederschläge Wind Luftdruck Luftfeuchtigkeit
    00:00 +21°C° 0 mm 1 m/S 719 mmHg 84%
    01:00 +21°C° 0 mm 1 m/S 718 mmHg 87%
    02:00 +20°C° 0 mm 1 m/S 718 mmHg 91%
    03:00 +19°C° 0 mm 1 m/S 718 mmHg 95%
    04:00 +19°C° 0 mm 1 m/S 718 mmHg 93%
    05:00 +20°C° 0 mm 1 m/S 719 mmHg 92%
    06:00 +18°C° 0 mm 0 m/S 719 mmHg 90%
    07:00 +22°C° 0 mm 1 m/S 719 mmHg 76%
    08:00 +25°C° 0 mm 1 m/S 720 mmHg 63%
    09:00 +27°C° 0 mm 1 m/S 720 mmHg 49%
    10:00 +29°C° 0 mm 3 m/S 720 mmHg 44%
    11:00 +32°C° 0 mm 4 m/S 720 mmHg 38%
    12:00 +35°C° 0 mm 5 m/S 720 mmHg 33%
    13:00 +34°C° 0 mm 5 m/S 720 mmHg 35%
    14:00 +34°C° 0 mm 5 m/S 719 mmHg 37%
    15:00 +34°C° 0 mm 5 m/S 719 mmHg 39%
    16:00 +33°C° 0 mm 5 m/S 719 mmHg 41%
    17:00 +32°C° 0 mm 4 m/S 719 mmHg 43%
    18:00 +30°C° 0 mm 3 m/S 719 mmHg 46%
    19:00 +28°C° 0 mm 2 m/S 719 mmHg 52%
    20:00 +26°C° 0 mm 2 m/S 719 mmHg 59%
    21:00 +24°C° 0 mm 1 m/S 719 mmHg 65%
    22:00 +24°C° 0 mm 1 m/S 719 mmHg 69%
    23:00 +23°C° 0 mm 1 m/S 719 mmHg 72%
    Mehr zeigen